Regional Weather Roundup
Issued by NWS

Home | Current Version | Previous Version | Text Only | Print | Product List | Glossary Off
Versions: 1 2 3 4 5 6 7 8 9 10 11 12 13 14 15 16 17 18 19 20 21 22 23 24 25 26 27 28 29 30 31 32 33 34 35 36 37 38 39 40 41 42 43 44 45 46 47 48 49 50

448
ASUS45 KSLC 080710
RWRUT

UTAH REGIONAL WEATHER ROUNDUP
NATIONAL WEATHER SERVICE SALT LAKE CITY UT
1200 AM MST THU DEC 08 2016

UTZ001>011-023>025-080800-

NORTHERN UTAH

CITY           SKY/WX    TMP DP  RH WIND       PRES   REMARKS
BRIGHAM CITY     N/A     15   8  75 CALM      30.34S
HILL AFB       PTCLDY    14   5  65 E15       30.29F WCI  -1
LOGAN          PTCLDY    12   8  84 NW3       30.34F
OGDEN          CLEAR     16   7  67 S8        30.30F WCI   5
SALT LAKE CITY PTCLDY    21  10  62 SE3       30.31F
TOOELE VALLEY  MOCLDY    19  14  79 S9        30.32S WCI   9
WENDOVER       MOCLDY    19   7  58 CALM      30.31F
HEBER CITY     PTCLDY     9   3  78 CALM      30.27S
WEST JORDAN    MOCLDY    17  14  90 CALM      30.31F

$$

UTZ011>015-024>027-080800-

CENTRAL/NORTHEAST UTAH

CITY           SKY/WX    TMP DP  RH WIND       PRES   REMARKS
PROVO AIRPORT  PTCLDY    19  10  68 S5        30.32S WCI  12
MOAB/CANYONLAN CLEAR     18   2  49 W5        30.30R WCI  11
DELTA          CLOUDY    16   9  73 NE5       30.27F WCI   9
PRICE          MOCLDY    12  -6  44 CALM      30.23F
RICHFIELD      PTCLDY    14   9  79 CALM      30.30F
ROOSEVELT      CLOUDY    12   3  67 SW6       30.35S WCI   3
VERNAL         CLOUDY    12   1  61 NW6       30.32S WCI   3

$$

UTZ013>016-019>022-027-080800-

SOUTHERN UTAH

CITY           SKY/WX    TMP DP  RH WIND       PRES   REMARKS
BRYCE CANYON   PTCLDY     1  -4  79 W6        30.20  WCI -10
CEDAR CITY     PTCLDY    14   6  70 SW5       30.22R WCI   6
MILFORD        PTCLDY    15   5  64 N3        30.25F
ST GEORGE      MOSUNNY   34   9  35 E3        30.29R
HANKSVILLE     CLEAR     18   1  49 CALM      30.33S
KANAB          CLEAR     27   9  46 N14       30.27S WCI  15
BLANDING       CLEAR     16  -1  48 N6        30.32R WCI   7

$$

REGIONAL REPORTS     COLORADO/ARIZONA

CITY           SKY/WX    TMP DP  RH WIND       PRES   REMARKS
CRAIG, CO      CLOUDY    -9 -14  78 CALM      30.31F
GRAND JUNCTION CLEAR     16   8  71 SE8       30.31R WCI   5
RIFLE, CO      CLOUDY     8   1  73 S5        30.33S WCI   0
MONTROSE, CO   CLOUDY    12   4  70 SE12      30.31S WCI  -2
CORTEZ, CO     CLOUDY    11   4  73 E5        30.26S WCI   3
COLORADO CITY    N/A     32  10  40 NE10G17   30.24R WCI  24
PAGE, AZ       CLEAR     30   3  31 CALM      30.25R
GRAND CANYON   NOT AVBL
KINGMAN, AZ    CLEAR     33   6  32 E12       30.17S WCI  24
FLAGSTAFF, AZ  PTCLDY    21  16  81 CALM      30.18S

$$

REGIONAL REPORTS    NEVADA/IDAHO/WYOMING

CITY           SKY/WX    TMP DP  RH WIND       PRES   REMARKS
LAS VEGAS, NV  MOCLDY    40   8  26 S3        30.21S
ELY, NY        CLOUDY    13   4  67 CALM      30.18F
ELKO, NV       CLOUDY    21   6  52 E6        30.19R WCI  13
POCATELLO, ID  CLOUDY    -4  -6  91 CALM      30.35S FOG
BURLEY, ID     PTCLDY     7   3  84 NE5       30.30F WCI  -2
FORT BRIDGER,    N/A      4  -3  75 CALM      30.24F
EVANSTON, WY   CLOUDY     1  -9  62 SE6       30.20S WCI -10
ROCK SPRINGS,  CLOUDY    -4  -9  79 SE8       30.24F WCI -19
KEMMERER, WY     N/A     -8 -13  77 N13       30.20S WCI -28

$$




USA.gov is the U.S. government's official web portal to all federal, state and local government web resources and services.